SCP
-0 0 0 0 0 0 0 0 0 0 0 0 0 0 0 0 0 0 0 0 0 0 0 0 0 0 0 0 0 0 0 0 0 0 0 0 0 0 0 0 0 0 0
0 0 0 0 0 0 0 0 0 0 0 0 0 0 0 0 0 0 0 0 0 0 0 0 0 0 0 0 0 0 0 0 0 0 0 0 0 0 0 0 0 0 0
0 0 0 0 0 0 0 0 0 0 0 0 0 0 0 0 0 0 0 0 0 0 0 0 0 0 0 0 0 0 0 0 0 0 0 0 0 0 0 0 0 0 0
0 0 0 0 0 0 0 0 0 0 0 0 0 0 0 0 0 0 0 0 0 0 0 0 0 0 0 0 0 0 0 0 0 0 0 0 0 0 0 0 0 0 0
0 0 0 0 0 0 0 0 0 0 0 0 0 0 0 0 0 0 0 0 0 0 0 0 0 0 0 0 0 0 0 0 0 0 0 0 0 0 0 0 0 0 0
0 0 0 0 0 0 0 0 0 0 0 0 0 0 0 0 0 0 0 0 0 0 0 0 0 0 0 0 0 0 0 0 0 0 0 0 0 0 0 0 0 0 1
0 0 1 1 0 0 0 0 0 0 0 0 0 0 0 0 0 0 0 0 0 0 0 0 0 0 0 0 0 0 0 0 0 0 0 0 0 0 0 0 1 1 1
0 0 1 1 1 0 0 0 0 0 0 0 0 0 0 0 0 0 0 0 0 0 0 0 0 0 0 0 0 0 0 0 0 0 0 0 0 0 1 1 2 1 1
0 0 0 0 0 0 0 0 0 0 0 0 0 0 0 0 0 0 0 0 0 0 0 0 0 0 0 0 0 0 0 0 0 0 0 0 0 0 1 1 1 0 0
0 0 0 0 0 0 0 0 0 0 0 0 0 0 0 0 0 0 0 0 0 0 0 0 0 0 0 0 0 0 0 0 0 0 0 0 0 0 0 0 1 1 0
0 0 0 0 0 0 0 0 0 0 0 0 0 0 0 0 0 0 0 0 0 0 0 0 0 0 0 0 0 0 0 0 0 0 0 0 0 0 0 0 0 0 0
0 0 0 0 0 0 0 0 0 0 0 0 0 0 0 0 0 0 0 0 0 0 0 0 0 0 0 0 0 0 0 0 0 0 0 0 0 0 0 0 0 0 0
0 0 0 0 0 0 0 0 0 0 0 0 0 0 0 0 0 0 0 0 0 0 0 0 0 0 0 0 0 0 0 0 0 0 0 0 0 0 0 0 0 0 0
0 0 0 0 0 0 0 0 0 0 0 0 0 0 0 0 0 0 0 0 0 0 0 0 0 0 0 0 0 0 0 0 0 0 0 0 0 0 0 0 0 0 0
0 0 0 0 0 0 0 0 0 0 0 0 0 0 0 0 0 0 0 0 0 0 0 0 0 0 0 0 0 0 0 0 0 0 0 0 0 0 0 0 0 0 0
0 0 0 0 0 0 0 0 0 0 0 0 0 0 0 0 0 0 0 0 0 0 0 0 0 0 0 0 0 0 0 0 0 0 0 0 0 0 0 0 0 0 0
0 0 0 0 0 0 0 0 0 0 0 0 0 0 0 0 0 0 0 0 0 0 0 0 0 0 0 0 0 0 0 0 0 0 0 0 0 0 0 0 0 0 0
0 0 0 0 0 0 0 0 0 0 0 0 0 0 0 0 0 0 0 0 0 0 0 0 0 0 0 0 0 0 0 0 0 0 0 0 0 0 0 0 0 0 0
0 0 0 0 0 0 0 0 0 0 0 0 0 0 0 0 0 0 0 0 0 0 0 0 0 0 0 0 0 0 0 0 0 0 0 0 0 0 0 0 0 0 0
0 0 0 0 0 0 0 0 0 0 0 0 0 0 0 0 0 0 0 0 0 0 0 0 0 0 0 0 0 0 0 0 0 0 0 0 0 0 0 0 0 0 0
0 0 0 0 0 0 0 0 0 0 0 0 0 0 0 0 0 0 0 0 0 0 0 0 0 0 0 0 0 0 0 0 0 0 0 0 0 0 0 0 0 0 0
0 0 0 0 0 0 0 0 0 0 0 0 0 0 0 0 0 0 0 0 0 0 0 0 0 0 0 0 0 0 0 0 0 0 0 0 0 0 0 0 0 0 0
0 0 0 0 0 0 0 0 0 0 0 0 0 0 0 0 0 0 0 0 0 0 0 0 0 0 0 0 0 0 0 0 0 0 0 0 0 0 0 0 0 0 0
0 0 0 0 0 0 0 0 0 0 0 0 0 0 0 0 0 0 0 0 0 0 0 0 0 0 0 0 0 0 0 0 0 0 0 0 0 0 0 0 0 0 0
0 0 -0 -0 0 0 0 0 0 0 0 0 0 0 0 0 0 0 0 0 0 0 0 0 0 0 0 0 0 0 0 0 0 0 0 0 0 0 0 0 0 0 0
0 0 0 -0 0 0 0 0 0 0 0 0 0 0 0 0 0 0 0 0 0 0 0 0 0 0 0 0 0 0 0 0 0 0 0 0 0 0 0 0 0 0 0
Wind_Speed_500mb
14 12 7 8 7 7 9 11 12 14 15 16 16 17 16 15 16 16 17 18 20 21 19 17 16 12 12 14 15 12 12 9 7 3 4 8 10 11 13 16 19 17 11
16 14 9 10 8 9 10 12 13 15 16 17 18 18 17 18 18 19 21 24 26 26 24 26 26 23 19 13 11 14 16 18 15 12 8 8 11 12 13 15 15 13 12
13 15 13 10 9 9 10 13 16 19 20 20 18 18 17 16 18 22 26 30 32 30 28 27 28 27 25 24 22 19 16 18 22 20 18 12 10 12 15 18 17 14 13
11 12 12 12 11 10 10 11 14 19 22 20 19 17 15 16 18 23 26 29 28 27 26 23 22 20 22 22 24 25 22 20 20 24 25 21 19 15 14 18 24 23 20
8 9 7 9 10 9 8 10 18 25 24 16 12 14 13 13 18 22 22 19 19 20 18 14 15 18 21 20 17 16 16 17 19 23 28 28 26 23 23 17 23 23 27
4 3 6 9 11 11 9 11 19 29 24 18 17 15 13 14 16 19 18 17 21 21 21 22 19 14 13 15 17 16 13 10 12 17 22 28 30 29 28 28 22 26 27
3 4 4 6 7 8 10 10 21 26 28 22 16 15 14 14 14 16 12 14 19 19 20 20 18 13 12 12 15 18 15 15 15 13 17 19 24 29 29 29 27 24 28
8 9 9 9 8 11 11 14 19 23 28 31 23 18 15 17 17 15 9 13 16 15 16 19 16 14 13 10 12 14 14 18 18 15 14 12 13 18 25 27 25 24 25
12 11 13 14 11 8 9 13 18 25 31 35 26 15 14 18 22 17 16 16 14 19 22 24 24 21 18 16 12 10 8 11 16 14 12 10 6 10 14 19 21 23 27
17 16 13 12 11 9 12 12 14 25 31 35 23 13 15 20 22 19 22 26 29 30 31 28 25 24 20 17 16 16 12 11 14 13 14 15 12 6 8 14 22 25 29
20 19 16 10 12 14 11 13 18 23 31 30 24 16 16 21 21 21 24 27 32 32 28 24 23 22 20 15 13 16 20 20 18 12 10 10 13 15 17 18 20 24 32
20 21 21 13 12 17 15 14 15 20 30 28 25 25 21 21 19 22 26 29 31 25 23 26 28 27 21 14 15 13 16 19 21 18 16 19 22 25 29 31 33 34 36
20 21 21 12 9 19 17 14 13 20 28 25 23 26 25 26 21 23 27 29 23 25 27 31 28 29 25 17 17 18 18 15 7 7 6 9 14 19 24 26 29 33 32
16 15 14 13 11 15 14 13 16 22 25 24 22 28 27 26 23 25 29 31 29 30 33 36 29 27 20 18 17 19 21 17 12 7 4 7 9 14 14 18 21 21 23
15 15 13 10 13 18 19 20 21 23 20 19 22 30 29 27 25 25 30 30 30 31 33 36 35 27 18 17 20 21 21 18 14 11 9 8 7 11 20 26 28 29 29
17 16 14 11 13 18 21 22 23 17 15 13 22 33 36 33 30 29 30 32 30 32 37 40 37 29 21 16 18 18 20 13 15 15 12 9 10 15 19 25 27 23 22
18 18 14 11 10 11 17 19 16 9 10 11 19 29 35 33 32 31 31 30 32 36 39 34 29 27 23 20 17 14 11 6 13 15 11 9 11 16 19 22 23 20 20
17 16 17 13 9 10 15 14 6 2 5 11 16 25 31 30 31 32 32 31 33 37 37 34 31 27 24 17 12 6 14 11 10 9 9 13 18 23 24 25 23 22 21
21 16 16 16 12 10 17 17 15 10 8 12 14 19 26 25 28 33 36 32 34 34 36 34 32 30 26 16 3 14 13 10 6 6 12 17 21 27 29 28 25 22 22
26 19 15 19 15 14 17 21 22 19 14 15 16 17 21 22 25 31 35 36 32 32 32 32 30 27 26 10 10 13 7 5 3 6 12 18 24 28 30 31 27 22 21
36 25 16 19 16 15 18 18 22 23 21 17 16 20 20 21 24 29 35 40 34 31 31 33 32 29 23 11 8 13 11 10 5 11 12 19 24 27 30 31 27 23 20
45 28 20 18 17 13 17 19 22 23 26 22 22 22 21 22 25 24 30 36 33 28 27 29 31 30 29 26 19 10 12 18 21 21 13 18 25 26 25 23 21 21 20
52 33 25 21 18 15 17 21 25 30 29 30 26 25 22 22 24 23 28 35 33 27 26 26 28 29 31 26 24 19 10 10 37 5 15 26 24 25 25 23 21 18 19
58 35 30 28 23 18 19 22 25 28 30 30 28 28 25 23 21 22 25 30 32 28 25 23 23 24 26 28 22 21 20 19 13 22 25 25 23 21 24 19 20 17 19
54 22 30 37 33 27 20 21 25 27 30 30 29 29 25 25 23 23 24 27 28 28 25 23 25 24 27 25 23 23 23 21 19 24 38 47 35 22 18 21 17 17 19
42 35 23 48 41 31 21 21 23 23 25 31 33 32 27 26 26 27 26 28 28 26 28 24 24 23 28 27 27 28 30 30 30 29 39 45 45 41 18 17 15 19 19
Wind_Direction_500mb
86 71 60 51 37 12 358 358 357 351 348 348 349 349 348 345 342 339 333 328 324 322 316 317 319 318 312 306 300 272 273 277 285 287 208 211 219 232 237 247 248 251 250
59 67 55 41 20 2 352 353 352 348 345 346 345 343 343 342 340 338 333 326 319 312 306 303 298 290 289 291 286 287 265 258 259 259 249 220 219 222 228 240 249 246 237
64 74 65 51 28 6 1 1 357 351 346 339 336 329 327 335 334 331 330 322 315 308 302 295 292 288 283 279 276 276 270 261 253 254 251 251 242 241 234 229 228 246 252
92 74 51 40 26 13 13 6 3 352 344 334 326 316 322 334 336 333 330 327 324 315 304 293 290 285 283 286 285 276 274 266 257 250 250 244 239 238 237 247 237 242 245
84 55 37 27 15 5 349 352 4 356 339 329 324 313 324 332 337 340 340 351 2 7 360 335 301 289 285 289 293 287 274 272 261 249 245 243 240 234 236 256 251 257 244
57 356 3 8 360 350 339 347 358 4 355 339 320 316 319 321 330 341 348 24 22 16 14 8 360 338 315 287 281 278 270 268 271 262 253 246 241 240 241 246 265 256 243
274 283 331 340 337 323 318 336 354 4 5 357 330 318 319 308 322 334 348 7 8 6 7 3 5 359 352 337 299 274 274 266 269 265 267 262 250 242 244 248 254 256 239
262 270 274 271 274 295 308 326 348 2 0 359 342 315 317 312 324 326 317 338 353 354 360 0 347 325 322 322 332 329 283 268 268 275 284 278 262 238 235 237 238 235 237
292 284 295 290 277 276 294 327 355 355 359 358 353 332 319 320 328 333 327 318 335 326 325 330 320 312 312 302 297 312 317 295 283 287 286 283 275 230 210 212 218 226 238
308 314 317 307 269 266 296 323 341 350 358 1 358 335 320 318 317 311 313 320 317 322 322 321 316 309 304 299 277 272 277 280 295 299 270 274 267 242 242 245 241 239 243
322 324 330 320 243 249 279 313 327 347 356 2 2 350 334 318 306 303 307 314 316 317 318 318 315 315 313 292 275 261 267 271 268 269 271 264 270 270 270 280 278 267 257
326 325 327 319 240 243 283 293 328 344 351 359 358 360 347 333 315 312 317 320 321 320 320 315 311 307 303 285 260 257 259 263 263 266 272 281 285 284 282 284 284 285 279
328 318 315 310 246 246 273 292 322 334 345 355 357 358 353 347 335 319 323 332 334 327 322 321 314 310 296 281 268 269 264 262 259 267 284 279 300 303 304 300 291 280 280
315 313 323 304 275 245 249 286 313 327 338 346 358 359 354 349 335 330 335 337 333 328 328 331 328 322 308 278 274 271 273 273 246 267 315 342 333 343 347 331 322 303 296
328 334 322 302 255 261 271 289 307 316 330 342 360 1 358 353 345 335 337 342 340 333 332 336 336 330 316 275 273 269 276 274 249 249 265 290 306 324 326 324 318 304 288
338 329 317 301 272 262 270 279 294 303 325 351 8 2 3 357 350 345 344 341 345 347 343 341 339 335 325 308 271 269 284 273 239 238 245 250 280 301 314 321 316 314 304
328 326 317 307 286 263 258 271 282 291 335 2 3 1 4 2 2 360 356 356 353 354 350 348 346 341 325 315 306 274 262 210 206 204 221 253 285 301 311 324 322 317 305
299 320 317 311 296 255 242 257 247 321 333 348 346 352 1 4 8 11 1 358 357 358 360 355 355 357 347 330 307 220 184 170 186 207 249 282 297 299 304 313 309 309 312
277 305 325 319 296 254 237 246 254 257 292 299 313 334 351 1 7 9 7 2 358 360 2 4 2 0 2 2 85 161 166 169 208 262 291 304 306 308 311 312 307 302 303
259 281 313 319 304 263 249 254 261 262 274 289 290 310 337 348 358 2 3 2 360 359 2 7 11 12 8 30 150 139 147 185 225 304 318 325 319 315 315 312 303 302 300
244 257 291 313 301 274 266 269 263 270 265 278 291 290 314 328 341 350 357 359 358 357 2 11 11 18 26 23 221 244 257 254 286 311 339 336 325 316 310 313 300 290 290
242 248 269 292 304 291 282 272 262 264 258 264 275 277 300 319 327 334 346 355 356 356 358 3 13 15 20 24 16 286 291 269 264 290 291 339 336 326 320 311 306 288 286
239 244 269 283 296 304 283 273 266 264 270 271 279 275 291 306 319 322 337 350 354 351 350 354 5 16 20 16 19 25 343 334 331 254 295 323 316 325 324 317 303 300 298
239 242 266 270 285 305 295 280 275 264 275 281 281 278 294 303 310 310 324 343 353 348 346 351 353 360 5 13 21 15 4 344 329 321 331 339 337 322 318 312 317 300 301
224 224 261 273 276 287 303 292 282 285 283 284 289 283 299 305 314 310 307 329 341 350 344 344 358 357 350 348 350 350 350 354 340 322 322 341 348 340 317 319 316 308 298
220 218 184 262 258 270 300 311 295 292 291 291 291 287 301 307 312 320 305 317 324 330 341 330 333 347 348 342 331 329 327 325 322 317 313 325 329 346 322 320 308 317 309
Wind_Speed_850mb
14 12 7 8 7 7 9 11 12 14 15 16 16 17 16 15 16 16 17 18 20 21 19 17 16 12 12 14 15 12 12 9 7 3 4 8 10 11 13 16 19 17 11
16 14 9 10 8 9 10 12 13 15 16 17 18 18 17 18 18 19 21 24 26 26 24 26 26 23 19 13 11 14 16 18 15 12 8 8 11 12 13 15 15 13 12
13 15 13 10 9 9 10 13 16 19 20 20 18 18 17 16 18 22 26 30 32 30 28 27 28 27 25 24 22 19 16 18 22 20 18 12 10 12 15 18 17 14 13
11 12 12 12 11 10 10 11 14 19 22 20 19 17 15 16 18 23 26 29 28 27 26 23 22 20 22 22 24 25 22 20 20 24 25 21 19 15 14 18 24 23 20
8 9 7 9 10 9 8 10 18 25 24 16 12 14 13 13 18 22 22 19 19 20 18 14 15 18 21 20 17 16 16 17 19 23 28 28 26 23 23 17 23 23 27
4 3 6 9 11 11 9 11 19 29 24 18 17 15 13 14 16 19 18 17 21 21 21 22 19 14 13 15 17 16 13 10 12 17 22 28 30 29 28 28 22 26 27
3 4 4 6 7 8 10 10 21 26 28 22 16 15 14 14 14 16 12 14 19 19 20 20 18 13 12 12 15 18 15 15 15 13 17 19 24 29 29 29 27 24 28
8 9 9 9 8 11 11 14 19 23 28 31 23 18 15 17 17 15 9 13 16 15 16 19 16 14 13 10 12 14 14 18 18 15 14 12 13 18 25 27 25 24 25
12 11 13 14 11 8 9 13 18 25 31 35 26 15 14 18 22 17 16 16 14 19 22 24 24 21 18 16 12 10 8 11 16 14 12 10 6 10 14 19 21 23 27
17 16 13 12 11 9 12 12 14 25 31 35 23 13 15 20 22 19 22 26 29 30 31 28 25 24 20 17 16 16 12 11 14 13 14 15 12 6 8 14 22 25 29
20 19 16 10 12 14 11 13 18 23 31 30 24 16 16 21 21 21 24 27 32 32 28 24 23 22 20 15 13 16 20 20 18 12 10 10 13 15 17 18 20 24 32
20 21 21 13 12 17 15 14 15 20 30 28 25 25 21 21 19 22 26 29 31 25 23 26 28 27 21 14 15 13 16 19 21 18 16 19 22 25 29 31 33 34 36
20 21 21 12 9 19 17 14 13 20 28 25 23 26 25 26 21 23 27 29 23 25 27 31 28 29 25 17 17 18 18 15 7 7 6 9 14 19 24 26 29 33 32
16 15 14 13 11 15 14 13 16 22 25 24 22 28 27 26 23 25 29 31 29 30 33 36 29 27 20 18 17 19 21 17 12 7 4 7 9 14 14 18 21 21 23
15 15 13 10 13 18 19 20 21 23 20 19 22 30 29 27 25 25 30 30 30 31 33 36 35 27 18 17 20 21 21 18 14 11 9 8 7 11 20 26 28 29 29
17 16 14 11 13 18 21 22 23 17 15 13 22 33 36 33 30 29 30 32 30 32 37 40 37 29 21 16 18 18 20 13 15 15 12 9 10 15 19 25 27 23 22
18 18 14 11 10 11 17 19 16 9 10 11 19 29 35 33 32 31 31 30 32 36 39 34 29 27 23 20 17 14 11 6 13 15 11 9 11 16 19 22 23 20 20
17 16 17 13 9 10 15 14 6 2 5 11 16 25 31 30 31 32 32 31 33 37 37 34 31 27 24 17 12 6 14 11 10 9 9 13 18 23 24 25 23 22 21
21 16 16 16 12 10 17 17 15 10 8 12 14 19 26 25 28 33 36 32 34 34 36 34 32 30 26 16 3 14 13 10 6 6 12 17 21 27 29 28 25 22 22
26 19 15 19 15 14 17 21 22 19 14 15 16 17 21 22 25 31 35 36 32 32 32 32 30 27 26 10 10 13 7 5 3 6 12 18 24 28 30 31 27 22 21
36 25 16 19 16 15 18 18 22 23 21 17 16 20 20 21 24 29 35 40 34 31 31 33 32 29 23 11 8 13 11 10 5 11 12 19 24 27 30 31 27 23 20
45 28 20 18 17 13 17 19 22 23 26 22 22 22 21 22 25 24 30 36 33 28 27 29 31 30 29 26 19 10 12 18 21 21 13 18 25 26 25 23 21 21 20
52 33 25 21 18 15 17 21 25 30 29 30 26 25 22 22 24 23 28 35 33 27 26 26 28 29 31 26 24 19 10 10 37 5 15 26 24 25 25 23 21 18 19
58 35 30 28 23 18 19 22 25 28 30 30 28 28 25 23 21 22 25 30 32 28 25 23 23 24 26 28 22 21 20 19 13 22 25 25 23 21 24 19 20 17 19
54 22 30 37 33 27 20 21 25 27 30 30 29 29 25 25 23 23 24 27 28 28 25 23 25 24 27 25 23 23 23 21 19 24 38 47 35 22 18 21 17 17 19
42 35 23 48 41 31 21 21 23 23 25 31 33 32 27 26 26 27 26 28 28 26 28 24 24 23 28 27 27 28 30 30 30 29 39 45 45 41 18 17 15 19 19
Wind_Direction_850mb
86 71 60 51 37 12 358 358 357 351 348 348 349 349 348 345 342 339 333 328 324 322 316 317 319 318 312 306 300 272 273 277 285 287 208 211 219 232 237 247 248 251 250
59 67 55 41 20 2 352 353 352 348 345 346 345 343 343 342 340 338 333 326 319 312 306 303 298 290 289 291 286 287 265 258 259 259 249 220 219 222 228 240 249 246 237
64 74 65 51 28 6 1 1 357 351 346 339 336 329 327 335 334 331 330 322 315 308 302 295 292 288 283 279 276 276 270 261 253 254 251 251 242 241 234 229 228 246 252
92 74 51 40 26 13 13 6 3 352 344 334 326 316 322 334 336 333 330 327 324 315 304 293 290 285 283 286 285 276 274 266 257 250 250 244 239 238 237 247 237 242 245
84 55 37 27 15 5 349 352 4 356 339 329 324 313 324 332 337 340 340 351 2 7 360 335 301 289 285 289 293 287 274 272 261 249 245 243 240 234 236 256 251 257 244
57 356 3 8 360 350 339 347 358 4 355 339 320 316 319 321 330 341 348 24 22 16 14 8 360 338 315 287 281 278 270 268 271 262 253 246 241 240 241 246 265 256 243
274 283 331 340 337 323 318 336 354 4 5 357 330 318 319 308 322 334 348 7 8 6 7 3 5 359 352 337 299 274 274 266 269 265 267 262 250 242 244 248 254 256 239
262 270 274 271 274 295 308 326 348 2 0 359 342 315 317 312 324 326 317 338 353 354 360 0 347 325 322 322 332 329 283 268 268 275 284 278 262 238 235 237 238 235 237
292 284 295 290 277 276 294 327 355 355 359 358 353 332 319 320 328 333 327 318 335 326 325 330 320 312 312 302 297 312 317 295 283 287 286 283 275 230 210 212 218 226 238
308 314 317 307 269 266 296 323 341 350 358 1 358 335 320 318 317 311 313 320 317 322 322 321 316 309 304 299 277 272 277 280 295 299 270 274 267 242 242 245 241 239 243
322 324 330 320 243 249 279 313 327 347 356 2 2 350 334 318 306 303 307 314 316 317 318 318 315 315 313 292 275 261 267 271 268 269 271 264 270 270 270 280 278 267 257
326 325 327 319 240 243 283 293 328 344 351 359 358 360 347 333 315 312 317 320 321 320 320 315 311 307 303 285 260 257 259 263 263 266 272 281 285 284 282 284 284 285 279
328 318 315 310 246 246 273 292 322 334 345 355 357 358 353 347 335 319 323 332 334 327 322 321 314 310 296 281 268 269 264 262 259 267 284 279 300 303 304 300 291 280 280
315 313 323 304 275 245 249 286 313 327 338 346 358 359 354 349 335 330 335 337 333 328 328 331 328 322 308 278 274 271 273 273 246 267 315 342 333 343 347 331 322 303 296
328 334 322 302 255 261 271 289 307 316 330 342 360 1 358 353 345 335 337 342 340 333 332 336 336 330 316 275 273 269 276 274 249 249 265 290 306 324 326 324 318 304 288
338 329 317 301 272 262 270 279 294 303 325 351 8 2 3 357 350 345 344 341 345 347 343 341 339 335 325 308 271 269 284 273 239 238 245 250 280 301 314 321 316 314 304
328 326 317 307 286 263 258 271 282 291 335 2 3 1 4 2 2 360 356 356 353 354 350 348 346 341 325 315 306 274 262 210 206 204 221 253 285 301 311 324 322 317 305
299 320 317 311 296 255 242 257 247 321 333 348 346 352 1 4 8 11 1 358 357 358 360 355 355 357 347 330 307 220 184 170 186 207 249 282 297 299 304 313 309 309 312
277 305 325 319 296 254 237 246 254 257 292 299 313 334 351 1 7 9 7 2 358 360 2 4 2 0 2 2 85 161 166 169 208 262 291 304 306 308 311 312 307 302 303
259 281 313 319 304 263 249 254 261 262 274 289 290 310 337 348 358 2 3 2 360 359 2 7 11 12 8 30 150 139 147 185 225 304 318 325 319 315 315 312 303 302 300
244 257 291 313 301 274 266 269 263 270 265 278 291 290 314 328 341 350 357 359 358 357 2 11 11 18 26 23 221 244 257 254 286 311 339 336 325 316 310 313 300 290 290
242 248 269 292 304 291 282 272 262 264 258 264 275 277 300 319 327 334 346 355 356 356 358 3 13 15 20 24 16 286 291 269 264 290 291 339 336 326 320 311 306 288 286
239 244 269 283 296 304 283 273 266 264 270 271 279 275 291 306 319 322 337 350 354 351 350 354 5 16 20 16 19 25 343 334 331 254 295 323 316 325 324 317 303 300 298
239 242 266 270 285 305 295 280 275 264 275 281 281 278 294 303 310 310 324 343 353 348 346 351 353 360 5 13 21 15 4 344 329 321 331 339 337 322 318 312 317 300 301
224 224 261 273 276 287 303 292 282 285 283 284 289 283 299 305 314 310 307 329 341 350 344 344 358 357 350 348 350 350 350 354 340 322 322 341 348 340 317 319 316 308 298
220 218 184 262 258 270 300 311 295 292 291 291 291 287 301 307 312 320 305 317 324 330 341 330 333 347 348 342 331 329 327 325 322 317 313 325 329 346 322 320 308 317 309